Погода в Белогостицах

Россия / Ярославская область     57°13′51″N   39°29′32″E
темп.,
°C
ветер,
м/с
пор.,
м/с
влажн.,
%
обл.,
%
осадки,
мм/ч
давл.,
гПа
погр.,
м
17 июня, чт
чт1700:00+12ссз337152 0.0 101836
03:00+10сз36684 0.0 102076
06:00+12сз31075100 0.0 1022290
09:00+17ссз485692 0.0 1023723
12:00+20ссз35475 0.0 10241629
15:00+21сз464953 0.0 10242060
18:00+20зсз347194 0.0 1024123
21:00+16зюз22720 0.0 102416
18 июня, пт
пт1800:00+14з33760 0.0 102546
03:00+12зсз22845 0.0 102711
06:00+15з118034 0.0 102773
09:00+20зюз226735 0.0 1027391
12:00+23зюз245355 0.0 10261330
15:00+25зюз35505 0.0 10251685
18:00+24зюз36675 0.0 1024268
21:00+18юз47765 0.0 1024102
19 июня, сб
сб1900:00+16юз478139 0.0 1025108
03:00+15зюз4108962 0.0 1025186
06:00+17зюз411855 0.0 1025288
09:00+22зюз57685 0.0 1025547
12:00+25зюз57593 0.0 10241212
15:00+27зюз46570 0.0 10231668
18:00+26зюз47685 0.0 1022319
21:00+20юз49804 0.0 1023133
20 июня, вс
вс2000:00+18зюз34835 0.0 102362
03:00+16зюз36860 0.0 102498
06:00+18зюз36860 0.0 1024178
09:00+23юз45685 0.0 1023508
12:00+26юз45555 0.0 10231207
15:00+27ююз45515 0.0 10211611
18:00+26ююз35670 0.0 1021275
21:00+20юз33720 0.0 102024
21 июня, пн
пн2100:00+17юз34820 0.0 102162
03:00+17зюз34895 0.0 102149
06:00+19юз25865 0.0 1021149
09:00+24зюз34720 0.0 1021493
12:00+28юз34580 0.0 10201368
15:00+29з45587 0.4 10201412
18:00+26зюз236679 0.0 101996
21:00+22св118179 0.9 102015